Regional Weather Roundup
Issued by NWS

Home | Current Version | Previous Version | Graphics & Text | Print | Product List | Glossary On
Versions: 1 2 3 4 5 6 7 8 9 10 11 12 13 14 15 16 17 18 19 20 21 22 23 24 25 26 27 28 29 30 31 32 33 34 35 36 37 38 39 40 41 42 43 44 45 46 47 48 49 50
000
ASUS45 KBOU 200607
RWRCO

WEATHER ROUNDUP FOR COLORADO
NATIONAL WEATHER SERVICE DENVER/BOULDER CO
1200 AM MDT FRI OCT 20 2017

NOTE: "FAIR" INDICATES FEW OR NO CLOUDS BELOW 12000 FEET WITH NO
SIGNIFICANT WEATHER AND/OR OBSTRUCTIONS TO VISIBILITY.

COZ001>005-013-030-031-200700-
...NORTHWEST COLORADO...

CITY           SKY/WX    TMP DP  RH WIND       PRES   REMARKS
CRAIG          FAIR      47  32  56 NE3       29.95F
HAYDEN         CLOUDY    53  32  44 E10       29.99F
MEEKER         MOCLDY    54  31  41 VRB3      29.97F
RABBIT EARS PA FAIR      41  28  60 SW3       30.19F
STEAMBOAT SPGS MOCLDY    48  30  49 E6        30.00F
WALDEN         NOT AVBL
$$

COZ006>008-011-200700-
...WEST CENTRAL VALLEYS...

CITY           SKY/WX    TMP DP  RH WIND       PRES   REMARKS
GRAND JUNCTION FAIR      60  31  33 E9        29.90F
MONTROSE       MOCLDY    52  31  44 SE8       30.00F
EAGLE          FAIR      43  28  55 E3        30.05S
RIFLE          CLOUDY    52  32  46 CALM      29.95F
DELTA          FAIR      57  24  28 E8        29.96S
NUCLA          FAIR      61  30  31 SE3       30.04S
$$

COZ017>023-064>068-200700-
...SOUTHWEST COLORADO...

CITY           SKY/WX    TMP DP  RH WIND       PRES   REMARKS
DURANGO        FAIR      47  30  51 N3        30.09S
CORTEZ         MOCLDY    46  33  60 CALM      30.03F
PAGOSA SPRINGS CLOUDY    49  30  48 CALM      30.14F
TELLURIDE      CLOUDY    49  28  44 CALM      30.19F
WOLF CREEK PAS MOCLDY    34  28  80 S14G28    30.35F WCI  24
$$

COZ009-010-012-014-032>034-037-058>063-200700-
...CENTRAL COLORADO...

CITY           SKY/WX    TMP DP  RH WIND       PRES   REMARKS
ASPEN          FAIR      43  26  51 SW6       30.08F
BUENA VISTA    FAIR      42  21  43 W7        30.07F
COPPER MTN     FAIR      39  23  52 W7        30.28F
BERTHOUD PASS  FAIR      32  23  69 N6        30.29F WCI  26
COTTONWOOD PAS FAIR      54  21  28 SW14      30.16F
GUNNISON       FAIR      40  26  57 N6        30.10S
KREMMLING      FAIR      41  28  60 CALM      30.07S
LEADVILLE      FAIR      36  19  50 E5        30.16F
SALIDA         FAIR      48  19  31 CALM      30.13F
SUNLIGHT       MOCLDY    37  27  65 SW12G20   30.25F
WILKERSON PASS FAIR      41  14  33 SW16G22   30.25F
$$

COZ069>075-200700-
...SAN LUIS VALLEY/SANGRE DE CRISTO MOUNTAINS...

CITY           SKY/WX    TMP DP  RH WIND       PRES   REMARKS
ALAMOSA        FAIR      43  29  57 S10       30.07F
DEL NORTE      FAIR      50  27  40 W15       30.10F
LA VETA PASS   FAIR      43  27  52 SW18G36   30.29F
SAGUACHE       MOCLDY    43  19  39 N12       30.09F
$$

COZ035-036-038>040-200700-
...NORTHERN COLORADO FRONT RANGE...

CITY           SKY/WX    TMP DP  RH WIND       PRES   REMARKS
DENVER INTL AP FAIR      54  30  40 SW9       29.87F
DMNS CITY PARK   N/A     51  29  42 SE8       29.86F
AURORA         PTCLDY    51  32  48 SW5       29.89F
FRONT RANGE AP FAIR      54  34  47 S8        29.89S
ERIE MUNI ARPT FAIR      42  34  74 CALM      29.91F
BOULDER MUN AP FAIR      52  32  46 S5        29.87F
CENTENNIAL     FAIR      54  29  38 S5        29.90F
BROOMFIELD     FAIR      59  27  29 CALM      29.89F
FORT COLLINS   FAIR      48  33  56 NE5       29.86F
LONGMONT       FAIR      44  35  68 SW3       29.88F
$$

COZ041-046-047-076>085-087-088-200700-
...PIKES PEAK/PALMER DIVIDE AND SOUTHERN FOOTHILLS...

CITY           SKY/WX    TMP DP  RH WIND       PRES   REMARKS
COLO. SPRINGS  MOCLDY    47  33  58 N5        29.95F
A. F. ACADEMY  FAIR      42  29  59 N12       29.95F
SCHRIEVER AFB  FAIR      49  32  51 NE8       29.94F
CHEYENNE MTN   FAIR      55  28  36 CALM      29.92F
ELLICOTT       FAIR     N/A N/A N/A SE7       29.93F
FALCON         FAIR      41  31  68 N3        29.98F
FORT CARSON    FAIR      47  31  51 NW6       29.91F
LIMON          FAIR      41  39  93 CALM      29.91F
MONUMENT HILL  FAIR      45  32  61 SW6       29.99F
CANON CITY     FAIR      54  32  43 W8        29.90F
WALSENBURG     FAIR      54  28  37 W13       29.94F
TRINIDAD       FAIR      56  32  40 W9        29.94F
$$

COZ042>045-048>051-090-091-200700-
...NORTHEAST COLORADO...

CITY           SKY/WX    TMP DP  RH WIND       PRES   REMARKS
GREELEY ARPT   FAIR      39  33  79 NW8       29.86F
AKRON          FAIR      51  42  71 S10       29.85F
BURLINGTON     FAIR      55  46  71 S18G28    29.89F
WRAY           NOT AVBL
YUMA           FAIR      50  43  76 S9        29.85F
STERLING       FAIR      48  37  66 CALM      29.82F
HOLYOKE        FAIR      54  45  71 SE7       29.85F
FORT MORGAN    FAIR      50  33  52 S3        29.85F
$$

COZ086-089-092>099-200700-
...SOUTHEAST COLORADO...

CITY           SKY/WX    TMP DP  RH WIND       PRES   REMARKS
PUEBLO         FAIR      47  35  63 N8        29.86F
LA JUNTA       FAIR      59  40  49 S3        29.86F
LAMAR          FAIR      63  45  51 S23G31    29.85F
SPRINGFIELD    NOT AVBL
$$



USA.gov is the U.S. government's official web portal to all federal, state and local government web resources and services.